Weather History for KCKV - October, 2011

Change the Weather History Date:

Monday, October 17, 2011

  Actual Average Record
Temperature  
Mean Temperature 64 °F -  
Max Temperature 76 °F - 88 °F (1950)
Min Temperature 52 °F - 29 °F (1977)
Degree Days  
Heating Degree Days 1    
Month to date heating degree days 53  
Since 1 July heating degree days 88  
Cooling Degree Days 0    
Month to date cooling degree days 10  
Growing Degree Days 14 (Base 50)    
Moisture  
Dew Point 45 °F    
Average Humidity 56    
Maximum Humidity 77    
Minimum Humidity 35    
Precipitation  
Precipitation 0.00 in - 2.22 in (1975)
Month to date precipitation 0.13  
Sea Level Pressure  
Sea Level Pressure 29.90 in    
Wind  
Wind Speed 3 mph (NE)    
Max Wind Speed 13 mph    
Max Gust Speed 15 mph    
Visibility 10 miles    
Events      
T = Trace of Precipitation, MM = Missing Value Source: NWS Daily Summary

Daily Weather History Graph

Daily Weather History Graph

Search for Another Location

Airport or City:

Trip Planner

Search our weather history database for the weather conditions in past years. The results will help you decide how hot, cold, wet, or windy it might be!

Date:

Astronomy

Oct. 17, 2011 Rise Set
Actual Time 6:58 AM CDT 6:10 PM CDT
Civil Twilight 6:32 AM CDT 6:37 PM CDT
Nautical Twilight 6:02 AM CDT 7:07 PM CDT
Astronomical Twilight 5:32 AM CDT 7:36 PM CDT
Moon 9:57 PM CDT (10/17) 11:57 AM CDT (10/17)
Length of Visible Light 12h 04m
Length of Day
11h 12m
Waning Gibbous, 74% of the Moon is Illuminated
Oct 17
Waning Gibbous
Oct 19
Last Quarter
Oct 26
New
Nov 2
First Quarter
Nov 10
Full

Hourly Weather History & Observations

Time (CDT) Temp. Dew Point Humidity Pressure Visibility Wind Dir Wind Speed Gust Speed Precip Events Conditions
12:52 AM 66.0 °F 48.9 °F 54% 29.92 in 10.0 mi West 4.6 mph - N/A   Clear
1:52 AM 61.0 °F 50.0 °F 67% 29.94 in 10.0 mi North 5.8 mph - N/A   Clear
2:52 AM 57.9 °F 48.0 °F 70% 29.95 in 10.0 mi North 3.5 mph - N/A   Clear
3:52 AM 57.0 °F 46.9 °F 69% 29.96 in 10.0 mi Calm Calm - N/A   Clear
5:52 AM 53.1 °F 44.1 °F 71% 29.98 in 10.0 mi North 3.5 mph - N/A   Scattered Clouds
7:52 AM 55.0 °F 44.1 °F 67% 29.98 in 10.0 mi Calm Calm - N/A   Clear
8:52 AM 57.9 °F 44.1 °F 60% 29.99 in 10.0 mi ENE 5.8 mph - N/A   Clear
9:52 AM 62.1 °F 42.1 °F 48% 29.97 in 10.0 mi ENE 5.8 mph - N/A   Clear
10:52 AM 64.9 °F 41.0 °F 42% 29.95 in 10.0 mi ENE 5.8 mph - N/A   Clear
11:52 AM 68.0 °F 43.0 °F 40% 29.93 in 10.0 mi Variable 3.5 mph - N/A   Clear
1:52 PM 73.0 °F 45.0 °F 37% 29.88 in 10.0 mi Calm Calm - N/A   Clear
2:52 PM 73.9 °F 46.9 °F 38% 29.86 in 10.0 mi Calm Calm - N/A   Clear
3:52 PM 75.0 °F 48.0 °F 38% 29.84 in 10.0 mi Calm Calm - N/A   Clear
4:52 PM 73.9 °F 48.9 °F 41% 29.83 in 10.0 mi Calm Calm - N/A   Clear
5:52 PM 71.1 °F 46.9 °F 42% 29.83 in 10.0 mi NNE 5.8 mph - N/A   Clear
8:52 PM 63.0 °F 44.1 °F 50% 29.83 in 10.0 mi ENE 3.5 mph - N/A   Clear
9:52 PM 62.1 °F 44.1 °F 52% 29.83 in 10.0 mi ENE 4.6 mph - N/A   Clear
10:52 PM 60.1 °F 42.1 °F 51% 29.82 in 10.0 mi Calm Calm - N/A   Clear
11:52 PM 57.0 °F 41.0 °F 55% 29.80 in 10.0 mi Calm Calm - N/A   Clear